Regional Weather Roundup
Issued by NWS Boston, MA

Home | Current Version | Previous Version | Text Only | Print | Product List | Glossary On
Versions: 1 2 3 4 5 6 7 8 9 10 11 12 13 14 15 16 17 18 19 20 21 22 23 24 25 26 27
000
ASUS41 KBOX 251810
RWRBOX

REGIONAL WEATHER ROUNDUP
NATIONAL WEATHER SERVICE TAUNTON MA
200 PM EDT SAT OCT 25 2014

NOTE:  "FAIR" INDICATES FEW OR NO CLOUDS BELOW 12,000 FEET WITH NO
SIGNIFICANT WEATHER AND/OR OBSTRUCTIONS TO VISIBILITY.  THE FOLLOWING
OBSERVATION LOCATIONS DO NOT REPORT PRESENT WEATHER...PROVINCETOWN...
SMITHFIELD...BLOCK ISLAND...KEENE...AND OXFORD.

MAZALL-251900-
EASTERN MASSACHUSETTS

CITY           SKY/WX    TMP DP  RH WIND       PRES   REMARKS
BOSTON         MOSUNNY   64  41  42 W8        29.64F
6HR MIN TEMP:  48; 6HR MAX TEMP:  64;

BEVERLY        SUNNY     64  39  39 W12       29.63F
LAWRENCE       SUNNY     64  37  36 W7        29.64F
BEDFORD        SUNNY     64  40  41 W8        29.63F
BLUE HILL        N/A     62  41  46 W13G20    29.64F
NORWOOD        SUNNY     64  39  39 W13       29.64F
MARSHFIELD     NOT AVBL
PLYMOUTH       SUNNY     64  43  46 SW13      29.66F
TAUNTON        SUNNY     67  41  38 W9        29.65F
NEW BEDFORD    SUNNY     65  42  43 W13       29.66F
$$

MAZALL-251900-
CAPE COD AND THE ISLANDS

CITY           SKY/WX    TMP DP  RH WIND       PRES   REMARKS
FALMOUTH       SUNNY     63  46  55 SW12      29.67F
HYANNIS        SUNNY     62  49  62 SW12      29.65F
CHATHAM        SUNNY     61  47  59 SW7G20    29.67F
PROVINCETOWN   SUNNY     64   9  11 SW9       29.65F
NANTUCKET      SUNNY     62  50  64 SW22      29.68F
MARTHAS VNYRD  SUNNY     62  48  60 W13G18    29.68F
$$

MAZALL-251900-
CENTRAL AND WESTERN MASSACHUSETTS

CITY           SKY/WX    TMP DP  RH WIND       PRES   REMARKS
WORCESTER      SUNNY     57  38  48 W14       29.67F
6HR MIN TEMP:  43; 6HR MAX TEMP:  59;

FITCHBURG      SUNNY     63  38  39 NW9       29.65F
ORANGE         MOSUNNY   60  39  45 SW5       29.66F
SPRINGFIELD    PTSUNNY   65  44  45 W12       29.65F
WESTFIELD      PTSUNNY   66  43  43 W14       29.66F
NORTH ADAMS    PTSUNNY   58  46  64 W9        29.68F
PITTSFIELD     PTSUNNY   56  45  66 W9        29.68F
$$

RIZALL-251900-
RHODE ISLAND

CITY           SKY/WX    TMP DP  RH WIND       PRES   REMARKS
PROVIDENCE     MOSUNNY   65  38  36 W13       29.68F
6HR MIN TEMP:  46; 6HR MAX TEMP:  66;

NEWPORT        SUNNY     66  39  37 W10       29.68F
BLOCK ISLAND   SUNNY     63  46  55 W17       29.71F
SMITHFIELD     SUNNY     63  36  36 W13       29.66F
WESTERLY       SUNNY     63  48  58 SW12G20   29.70F
$$

CTZALL-251900-
CONNECTICUT

CITY           SKY/WX    TMP DP  RH WIND       PRES   REMARKS
BRADLEY INTL   PTSUNNY   67  42  40 W14G21    29.66F
6HR MIN TEMP:  43; 6HR MAX TEMP:  67;

HARTFORD       MOSUNNY   66  42  41 VRB7      29.67F
BRIDGEPORT     SUNNY     65  49  56 SW12      29.70F
DANBURY        MOSUNNY   63  41  44 W9        29.71F
GROTON         SUNNY     61  48  62 SW16      29.69F
NEW HAVEN      SUNNY     64  48  56 SW8       29.70F
CHESTER        NOT AVBL
MERIDEN        MOSUNNY   65  39  38 W10       29.69F
WILLIMANTIC    SUNNY     63  42  46 W9        29.68F
OXFORD         SUNNY     61  41  48 W7G17     29.70F
$$

MEZ002-015-021-024-NHZ003-005-008-011-012-014-VTZ005-008-251900-
NORTHERN NEW ENGLAND

CITY           SKY/WX    TMP DP  RH WIND       PRES   REMARKS
PORTLAND ME    MOSUNNY   65  42  43 W9        29.60F
6HR MIN TEMP:  44; 6HR MAX TEMP:  65;

BANGOR ME      MOSUNNY   59  33  37 NW5       29.57F
CONCORD NH     SUNNY     63  35  35 VRB7      29.62F
MANCHESTER NH  MOSUNNY   64  31  28 W9        29.61F
NASHUA NH      MOSUNNY   65  36  34 NW7G20    29.64F
PORTSMOUTH NH  MOSUNNY   65  38  35 W10       29.60F
JAFFREY NH     MOSUNNY   58  39  49 VRB5      29.65F
KEENE NH       PTSUNNY   61  37  41 SW5       29.65F
BURLINGTON VT  PTSUNNY   56  41  57 S9        29.61F
MT. WASHINGTON PTSUNNY   39  19  45 NW14        N/A  WCI  31
$$

NYZ052-076-251900-
EASTERN NEW YORK

CITY           SKY/WX    TMP DP  RH WIND       PRES   REMARKS
ALBANY         PTSUNNY   60  45  57 VRB5      29.68F
6HR MIN TEMP:  38; 6HR MAX TEMP:  62;

NEW YORK CITY  PTSUNNY   64  40  41 SW8       29.72F
6HR MIN TEMP:  52; 6HR MAX TEMP:  65;

$$

ANZALL-251900-
MARINE OBSERVATIONS

STATION/POSITION TIME  TEMP    WIND        PRES    VSBY  WAVE
                       AIR SEA DIR/SP/G                  HT/PER
                 (UTC) (F)     (DEG/KT/KT) (MB)    (MI)  (FT/S)
BOSTON BUOY      NOT AVBL
BUZZARDS BAY     NOT AVBL
NANTUCKET SOUND  NOT AVBL
MASS BAY-STELLWA NOT AVBL
ISLE OF SHOALS   NOT AVBL
S OF BLOCK IS    NOT AVBL
$$

......................KEY.........................
  SKY/WX - SKY CONDITION/PRESENT WEATHER
  TMP    - TEMPERATURE IN FAHRENHEIT
  DWPT   - DEWPOINT IN FAHRENHEIT
  RH     - RELATIVE HUMIDITY IN PERCENT
  WIND   - DIRECTION AND SPEED IN MPH
  PRES   - MEAN SEA LEVEL PRESSURE IN INCHES OF HG
  WCI    - WIND CHILL INDEX
  VSB    - VISIBILITY IN MILES
  HX     - HEAT INDEX
  TC     - TEMPERATURE IN CELSIUS
  VRB    - VARIABLE WIND DIRECTION
  N/A    - NOT AVAILABLE



USA.gov is the U.S. government's official web portal to all federal, state and local government web resources and services.